Regional Weather Roundup
Issued by NWS

Home | Current Version | Previous Version | Text Only | Print | Product List | Glossary Off
Versions: 1 2 3 4 5 6 7 8 9 10 11 12 13 14 15 16 17 18 19 20 21 22 23 24 25 26 27

000
ASUS45 KSLC 300910
RWRUT

UTAH REGIONAL WEATHER ROUNDUP
NATIONAL WEATHER SERVICE SALT LAKE CITY UT
300 AM MDT SAT APR 30 2016

UTZ001>011-023>025-301000-

NORTHERN UTAH

CITY           SKY/WX    TMP DP  RH WIND       PRES   REMARKS
BRIGHAM CITY   MOCLDY    43  37  78 CALM      29.88S
HILL AFB       PTCLDY    41  37  87 E13       29.87S
LOGAN          CLOUDY    40  38  93 SW5       29.89R
OGDEN          CLOUDY    44  37  76 CALM      29.86S
PROVO AIRPORT  PTCLDY    41  34  75 SE3       29.86F
SALT LAKE CITY MOCLDY    48  39  71 W5        29.85F
VERNAL         CLOUDY    37  30  75 NE3       29.87S
WENDOVER       CLOUDY    45  39  81 N5        29.89S
HEBER CITY     MOCLDY    34  32  93 E3        29.86F

$$

UTZ012>022-026-027-301000-

SOUTHERN/CENTRAL UTAH

CITY           SKY/WX    TMP DP  RH WIND       PRES   REMARKS
BLANDING       PTCLDY    35  33  93 N6        29.91F WCI  29
BRYCE CANYON   CLOUDY    32  29  88 W3        29.87F
CEDAR CITY     CLOUDY    41  37  86 SE3       29.83F
DELTA          MOCLDY    41  37  87 N7        29.85F
HANKSVILLE     CLEAR     43  41  93 N6        29.84S
MILFORD        CLOUDY    43  40  89 NW7       29.84S
MOAB/CYNLANDS  CLOUDY    46  43  89 CALM      29.80F
PRICE          CLEAR     38  31  76 N9        29.84F WCI  31
ST GEORGE      CLOUDY    48  45  87 NE6       29.85F
KANAB          CLOUDY    45  43  93 CALM      29.89F

$$

REGIONAL REPORTS     COLORADO/ARIZONA

CITY           SKY/WX    TMP DP  RH WIND       PRES   REMARKS
CRAIG, CO      CLOUDY    35  29  78 W10       29.86F WCI  27
GRAND JUNCTION CLOUDY    43  40  89 N8        29.83S
RIFLE          CLOUDY    43  35  73 W3        29.84S
MONTROSE       CLOUDY    42  35  76 SE6       29.86S
CORTEZ         CLOUDY    32  30  92 CALM      29.86F
PAGE, AZ       CLOUDY    52  40  63 NE5       29.81F
GRAND CANYON   MOCLDY    34  32  92 CALM      29.87F
KINGMAN        MOCLDY    57  37  47 S12       29.74F
FLAGSTAFF      CLOUDY    36  35  96 CALM      29.90F

$$

REGIONAL REPORTS    NEVADA/IDAHO/WYOMING

CITY           SKY/WX    TMP DP  RH WIND       PRES   REMARKS
LAS VEGAS, NV  LGT RAIN  62  44  51 N24G32    29.69R
ELY            CLOUDY    35  33  92 CALM      29.87F
ELKO           CLOUDY    41  38  89 W3        29.93S
POCATELLO, ID  PTCLDY    38  35  89 CALM      29.92R
BURLEY         LGT RAIN  43  38  82 W8G21     29.91R
EVANSTON, WY   CLOUDY    33  28  81 E10       29.91S WCI  25
ROCK SPRINGS   LGT SNOW  32  29  88 NE13      29.93S FOG     WCI  22
KEMMERER         N/A     32  28  86 NE7       29.94S WCI  26

$$




USA.gov is the U.S. government's official web portal to all federal, state and local government web resources and services.